{"data":{"norad_id":66798,"epoch":"2026-09-20T21:59:21.883200Z","epoch_age_seconds":50571,"freshness":"FRESH","line1":"1 66798U 25278H   26263.91622550  .00010690  00000+0  39737-3 0  9996","line2":"2 66798  43.0039  92.0751 0001287 289.4049  70.6663 15.27585676 45060","mean_motion":15.27585676,"eccentricity":0.0001287,"inclination_deg":43.0039,"raan_deg":92.0751,"arg_perigee_deg":289.4049,"mean_anomaly_deg":70.6663,"bstar":0.00039737,"rev_number":4506,"period_min":94.266398449785,"perigee_km":482.14906764316,"apogee_km":483.91513256953,"semimajor_km":6861.1691001063,"source":"CELESTRAK","updated_at":"2026-09-21T09:00:36.014779Z"}}